This is the latest recevied weather packets stored in our database for station/object GBTWP-2. If no packets are shown the sender has not sent any weather packets the latest 10 day(s).
| Time | Temp. | Humidity | Pressure | Rain* | Wind** | Luminosity | Snow |
|---|---|---|---|---|---|---|---|
| 1788014220 | 21.67° C | 57% | 1025.1 hPa | 0 mm | - | 463 W/m² | - |
| 1788013921 | 21.11° C | 60% | 1025.2 hPa | 0 mm | - | 148 W/m² | - |
| 1788013619 | 21.11° C | 60% | 1025.1 hPa | 0 mm | - | 111 W/m² | - |
| 1788013320 | 21.11° C | 61% | 1024.8 hPa | 0 mm | - | 137 W/m² | - |
| 1788013020 | 21.11° C | 60% | 1024.8 hPa | 0 mm | - | 83 W/m² | - |
| 1788012717 | 21.11° C | 60% | 1024.7 hPa | 0 mm | - | 96 W/m² | - |
| 1788012420 | 21.11° C | 59% | 1024.6 hPa | 0 mm | - | 101 W/m² | - |
| 1788012120 | 21.11° C | 58% | 1024.7 hPa | 0 mm | - | 142 W/m² | - |
| 1788011820 | 21.67° C | 58% | 1024.6 hPa | 0 mm | - | 148 W/m² | - |
| 1788011520 | 21.67° C | 57% | 1024.9 hPa | 0 mm | - | 153 W/m² | - |
| 1788011216 | 21.11° C | 58% | 1024.6 hPa | 0 mm | - | 133 W/m² | - |
| 1788010919 | 21.11° C | 58% | 1024.6 hPa | 0 mm | - | 144 W/m² | - |
| 1788010619 | 21.67° C | 57% | 1024.5 hPa | 0 mm | - | 145 W/m² | - |
| 1788010320 | 21.67° C | 59% | 1024.5 hPa | 0 mm | - | 294 W/m² | - |
| 1788010018 | 20.56° C | 61% | 1024.7 hPa | 0 mm | - | 250 W/m² | - |
| 1788009721 | 20° C | 61% | 1024.6 hPa | 0 mm | - | 90 W/m² | - |
| 1788009417 | 20° C | 62% | 1024.7 hPa | 0 mm | - | 200 W/m² | - |
| 1788009118 | 20° C | 64% | 1024.9 hPa | 0 mm | - | 126 W/m² | - |
| 1788008821 | 20° C | 63% | 1025 hPa | 0 mm | - | 105 W/m² | - |
| 1788008521 | 19.44° C | 64% | 1024.9 hPa | 0 mm | - | 130 W/m² | - |
| 1788007920 | 18.89° C | 66% | 1025.1 hPa | 0 mm | - | 125 W/m² | - |
| 1788007620 | 18.89° C | 66% | 1025.1 hPa | 0 mm | - | 100 W/m² | - |
| 1788007320 | 18.89° C | 65% | 1025 hPa | 0 mm | - | 72 W/m² | - |
| 1788007021 | 19.44° C | 64% | 1024.8 hPa | 0 mm | - | 106 W/m² | - |
| 1788006720 | 18.89° C | 66% | 1024.6 hPa | 0 mm | - | 120 W/m² | - |
* Rain latest hour (hover to see other rain measurements)
** Current wind speed in m/s (hover to see current wind gust speed)